When you browse on this site, cookies collect data to enhance your experience and personalize the content and advertising you see.
Visit our Privacy Policy to learn more. By continuing to use the site, you agree to this use of cookies and data.
  • In Hungary
  • List of Countries
  • For 7 days
  • Water Temperature
  • Weather Map
  • News
  • Weather Widgets
  • user-avatar
    Login

    Hourly Weather Ewing

    Today, 12 November, Tuesday

    Time Temperature Precipitation Wind Pressure Humidity
    00:00 +11°C° 0 mm 3 mps 753 mmHg 74%
    01:00 +11°C° 0 mm 3 mps 752 mmHg 71%
    02:00 +12°C° 0 mm 4 mps 751 mmHg 70%
    03:00 +12°C° 0 mm 4 mps 751 mmHg 68%
    04:00 +12°C° 0 mm 4 mps 750 mmHg 67%
    05:00 +12°C° 0.4 mm 4 mps 751 mmHg 73%
    06:00 +12°C° 0.4 mm 5 mps 751 mmHg 80%
    07:00 +10°C° 0.4 mm 5 mps 752 mmHg 86%
    08:00 +8°C° 0.6 mm 5 mps 752 mmHg 81%
    09:00 +5°C° 0.6 mm 6 mps 753 mmHg 76%
    10:00 +3°C° 0.6 mm 6 mps 754 mmHg 70%
    11:00 +2°C° 0 mm 6 mps 754 mmHg 68%
    12:00 +1°C° 0 mm 6 mps 755 mmHg 65%
    13:00 +1°C° 0 mm 6 mps 755 mmHg 63%
    14:00 -1°C° 0 mm 6 mps 756 mmHg 60%
    15:00 -1°C° 0 mm 6 mps 756 mmHg 56%
    16:00 -1°C° 0 mm 6 mps 757 mmHg 53%
    17:00 -2°C° 0 mm 6 mps 757 mmHg 53%
    18:00 -3°C° 0 mm 6 mps 758 mmHg 53%
    19:00 -5°C° 0 mm 6 mps 759 mmHg 53%
    20:00 -5°C° 0 mm 6 mps 760 mmHg 48%
    21:00 -6°C° 0 mm 6 mps 761 mmHg 43%
    22:00 -8°C° 0 mm 6 mps 762 mmHg 38%
    23:00 -7°C° 0 mm 5 mps 762 mmHg 38%

    Tomorrow, 13 November, Wednesday

    Time Temperature Precipitation Wind Pressure Humidity
    00:00 -7°C° 0 mm 5 mps 762 mmHg 38%
    01:00 -7°C° 0 mm 5 mps 763 mmHg 38%
    02:00 -7°C° 0 mm 5 mps 763 mmHg 38%
    03:00 -7°C° 0 mm 5 mps 764 mmHg 38%
    04:00 -7°C° 0 mm 5 mps 764 mmHg 38%
    05:00 -7°C° 0 mm 4 mps 764 mmHg 39%
    06:00 -7°C° 0 mm 4 mps 765 mmHg 40%
    07:00 -7°C° 0 mm 4 mps 766 mmHg 41%
    08:00 -5°C° 0 mm 4 mps 766 mmHg 38%
    09:00 -5°C° 0 mm 5 mps 766 mmHg 36%
    10:00 -4°C° 0 mm 5 mps 767 mmHg 33%
    11:00 -2°C° 0 mm 5 mps 767 mmHg 31%
    12:00 -2°C° 0 mm 4 mps 766 mmHg 28%
    13:00 -1°C° 0 mm 4 mps 766 mmHg 26%
    14:00 0°C° 0 mm 3 mps 767 mmHg 27%
    15:00 0°C° 0 mm 3 mps 767 mmHg 27%
    16:00 +1°C° 0 mm 2 mps 767 mmHg 28%
    17:00 -1°C° 0 mm 2 mps 767 mmHg 30%
    18:00 -2°C° 0 mm 2 mps 768 mmHg 32%
    19:00 0°C° 0 mm 1 mps 768 mmHg 35%
    20:00 -1°C° 0 mm 1 mps 768 mmHg 36%
    21:00 -1°C° 0 mm 1 mps 768 mmHg 37%
    22:00 -1°C° 0 mm 1 mps 769 mmHg 37%
    23:00 -1°C° 0 mm 1 mps 769 mmHg 37%

    Day after tomorrow, 14 November, Thursday

    Time Temperature Precipitation Wind Pressure Humidity
    00:00 -1°C° 0 mm 1 mps 769 mmHg 36%
    01:00 0°C° 0 mm 1 mps 769 mmHg 35%
    02:00 -1°C° 0 mm 1 mps 768 mmHg 35%
    03:00 -1°C° 0 mm 1 mps 768 mmHg 35%
    04:00 -1°C° 0 mm 1 mps 768 mmHg 35%
    05:00 -1°C° 0 mm 1 mps 768 mmHg 34%
    06:00 0°C° 0 mm 1 mps 768 mmHg 34%
    07:00 0°C° 0 mm 1 mps 768 mmHg 34%
    08:00 +1°C° 0 mm 1 mps 768 mmHg 36%
    09:00 +2°C° 0 mm 2 mps 768 mmHg 38%
    10:00 +3°C° 0 mm 3 mps 768 mmHg 40%
    11:00 +4°C° 0 mm 3 mps 768 mmHg 42%
    12:00 +5°C° 0 mm 3 mps 768 mmHg 43%
    13:00 +6°C° 0 mm 4 mps 767 mmHg 45%
    14:00 +5°C° 0 mm 3 mps 767 mmHg 49%
    15:00 +5°C° 0 mm 3 mps 766 mmHg 53%
    16:00 +6°C° 0 mm 2 mps 766 mmHg 58%
    17:00 +5°C° 0 mm 2 mps 766 mmHg 62%
    18:00 +5°C° 0 mm 1 mps 766 mmHg 66%
    19:00 +5°C° 0 mm 1 mps 766 mmHg 70%
    20:00 +4°C° 0 mm 1 mps 766 mmHg 73%
    21:00 +4°C° 0 mm 1 mps 766 mmHg 75%
    22:00 +4°C° 0 mm 1 mps 766 mmHg 77%
    23:00 +4°C° 0 mm 1 mps 765 mmHg 78%

    15 November, Friday

    Time Temperature Precipitation Wind Pressure Humidity
    00:00 +4°C° 0 mm 1 mps 765 mmHg 79%
    01:00 +4°C° 0 mm 1 mps 765 mmHg 80%
    02:00 +4°C° 0 mm 1 mps 764 mmHg 78%
    03:00 +3°C° 0 mm 1 mps 764 mmHg 76%
    04:00 +3°C° 0 mm 1 mps 764 mmHg 74%
    05:00 +3°C° 0 mm 1 mps 764 mmHg 68%
    06:00 +3°C° 0 mm 1 mps 764 mmHg 63%
    07:00 +3°C° 0 mm 1 mps 763 mmHg 58%
    08:00 +4°C° 0 mm 1 mps 763 mmHg 54%
    09:00 +6°C° 0 mm 1 mps 763 mmHg 51%
    10:00 +7°C° 0 mm 1 mps 763 mmHg 48%
    11:00 +7°C° 0 mm 2 mps 762 mmHg 46%
    12:00 +8°C° 0 mm 2 mps 762 mmHg 44%
    13:00 +9°C° 0 mm 2 mps 761 mmHg 43%
    14:00 +9°C° 0 mm 2 mps 761 mmHg 47%
    15:00 +8°C° 0 mm 2 mps 760 mmHg 52%
    16:00 +8°C° 0 mm 2 mps 760 mmHg 56%
    17:00 +7°C° 0 mm 3 mps 760 mmHg 59%
    18:00 +5°C° 0 mm 3 mps 761 mmHg 62%
    19:00 +4°C° 0 mm 4 mps 761 mmHg 65%
    20:00 +3°C° 0 mm 4 mps 761 mmHg 66%
    21:00 +1°C° 0 mm 4 mps 761 mmHg 68%
    22:00 +1°C° 0 mm 5 mps 762 mmHg 70%
    23:00 0°C° 0 mm 5 mps 762 mmHg 67%

    16 November, Saturday

    Time Temperature Precipitation Wind Pressure Humidity
    00:00 -1°C° 0 mm 5 mps 763 mmHg 65%
    01:00 -2°C° 0 mm 5 mps 763 mmHg 63%
    02:00 -4°C° 0 mm 5 mps 764 mmHg 57%
    03:00 -5°C° 0 mm 5 mps 764 mmHg 51%
    04:00 -6°C° 0 mm 5 mps 765 mmHg 45%
    05:00 -6°C° 0 mm 5 mps 766 mmHg 41%
    06:00 -6°C° 0 mm 5 mps 766 mmHg 37%
    07:00 -7°C° 0 mm 5 mps 767 mmHg 33%
    08:00 -6°C° 0 mm 6 mps 767 mmHg 30%
    09:00 -5°C° 0 mm 6 mps 768 mmHg 28%
    10:00 -3°C° 0 mm 6 mps 768 mmHg 25%
    11:00 -3°C° 0 mm 6 mps 768 mmHg 24%
    12:00 -1°C° 0 mm 5 mps 768 mmHg 24%
    13:00 0°C° 0 mm 5 mps 767 mmHg 23%
    14:00 0°C° 0 mm 4 mps 767 mmHg 24%
    15:00 0°C° 0 mm 4 mps 767 mmHg 26%
    16:00 +1°C° 0 mm 3 mps 768 mmHg 27%
    17:00 0°C° 0 mm 3 mps 768 mmHg 30%
    18:00 -1°C° 0 mm 3 mps 768 mmHg 33%
    19:00 -2°C° 0 mm 3 mps 768 mmHg 36%
    20:00 -2°C° 0 mm 3 mps 768 mmHg 36%
    21:00 -4°C° 0 mm 3 mps 768 mmHg 37%
    22:00 -4°C° 0 mm 4 mps 768 mmHg 37%
    23:00 -4°C° 0 mm 4 mps 768 mmHg 39%

    17 November, Sunday

    Time Temperature Precipitation Wind Pressure Humidity
    00:00 -4°C° 0 mm 3 mps 768 mmHg 40%
    01:00 -4°C° 0 mm 3 mps 767 mmHg 42%
    02:00 -3°C° 0 mm 4 mps 767 mmHg 44%
    03:00 -3°C° 0 mm 4 mps 766 mmHg 47%
    04:00 -2°C° 0 mm 4 mps 766 mmHg 49%
    05:00 -2°C° 0 mm 4 mps 766 mmHg 53%
    06:00 -2°C° 0 mm 4 mps 766 mmHg 58%
    07:00 -2°C° 0 mm 4 mps 765 mmHg 62%
    08:00 -1°C° 0 mm 4 mps 765 mmHg 62%
    09:00 -1°C° 0 mm 5 mps 765 mmHg 63%
    10:00 -1°C° 0 mm 5 mps 765 mmHg 64%
    11:00 0°C° 0 mm 5 mps 764 mmHg 64%
    12:00 +1°C° 0 mm 5 mps 763 mmHg 64%
    13:00 +1°C° 0 mm 5 mps 763 mmHg 64%
    14:00 +2°C° 0 mm 5 mps 762 mmHg 66%
    15:00 +2°C° 0 mm 5 mps 761 mmHg 68%
    16:00 +3°C° 0 mm 4 mps 761 mmHg 71%
    17:00 +3°C° 0 mm 4 mps 760 mmHg 73%
    18:00 +3°C° 0 mm 4 mps 760 mmHg 75%
    19:00 +3°C° 0 mm 4 mps 760 mmHg 77%
    20:00 +3°C° 0 mm 4 mps 760 mmHg 78%
    21:00 +3°C° 0 mm 4 mps 760 mmHg 79%
    22:00 +4°C° 0 mm 4 mps 759 mmHg 80%
    23:00 +4°C° 0 mm 4 mps 759 mmHg 79%
    Show more